Galena, Nevada Weather observations

Data are for 60 minute period ending nearest time listed.
 Day   Time    Ave.   Ave.  Ave.  Vector   Max.   Total    Solar   
  of    of     Air    Rel.  Wind   Wind    Wind  Precip.   Rad.    
Year   Day     Temp.  Hum.  Speed  Dir.    Gust                    
2026   (PST)    F      %     mph   deg.    mph     in.     W/m2    
------------------------------------------------------------------- 
 243    5:00   57.0    35    2.0   285      4.0    2.02       0  
 243    6:00   56.0    36    3.0   265      4.0    2.02       6  
 243    7:00   66.0    28    0.0    64      3.0    2.02     123  
 243    8:00   70.0    26    3.0   156      4.0    2.02     320  
 243    9:00   72.0    24    3.0   114      7.0    2.02     511  
 243   10:00   75.0    24    4.0   110      9.0    2.02     671  
 243   11:00   79.0    16    5.0   146     11.0    2.02     790  
 243   12:00   80.0    14    8.0   180     16.0    2.02     854  
 243   13:00   82.0    15    7.0   168     16.0    2.02     860  
 243   14:00   82.0    14    8.0   244     19.0    2.02     819  
 243   15:00   81.0    17   10.0   216     17.0    2.02     706  
 243   16:00   81.0    17    7.0   200     17.0    2.02     550  
 243   17:00   77.0    23   12.0   231     22.0    2.02     363  
 243   18:00   72.0    27   13.0   236     23.0    2.02      94  
 243   19:00   70.0    23   14.0   241     29.0    2.02      12  
 243   20:00   68.0    23   11.0   234     25.0    2.02       0  
 243   21:00   68.0    23    7.0   211     22.0    2.02       0  
 243   22:00   66.0    24    7.0   184     14.0    2.02       0  
 243   23:00   63.0    31    3.0   176     13.0    2.02       0  
 244    0:00   62.0    32    4.0   129     16.0    2.02       0  
 244    1:00   61.0    35    5.0    89     11.0    2.02       0  
 244    2:00   58.0    39    2.0    93     10.0    2.02       0  
 244    3:00   58.0    40    2.0   351     14.0    2.02       0  
 244    4:00   56.0    41    3.0   352      9.0    2.02       0  

Return to Galena, Nevada graphs page.


Western Regional Climate Center,wrcc@dri.edu